Location: A�t Ben Ahmed
(31.1328°N, 8.9018°W)
Time: 15:10:23
(UTC+00:00)

Daily predictions for brighter satellites

Satellite Brightness Start Highest point End
(mag) Time Altitude Azimuth Time Altitude Azimuth Time Altitude Azimuth
Cosmos 1953 2.9 18:15:27 10° SSW 18:19:21 61° W 18:23:16 10° N
Helios 1A Rocket 4.3 18:17:53 10° ESE 18:20:49 19° ENE 18:23:46 10° NNE
Cosmos 1606 Rocket 4.4 18:21:45 10° SSE 18:25:27 28° E 18:29:11 10° NNE
PSLV R/B 4.1 18:23:22 10° NNE 18:27:26 50° E 18:31:27 10° S
SL-4 R/B 4.4 18:26:24 10° NW 18:27:51 12° NNW 18:29:19 10° N
Delta 2 Rocket 4.1 18:24:50 10° WSW 18:30:16 80° NNW 18:35:58 10° ENE
SKYMED 2 3.5 18:26:42 10° NNE 18:31:02 69° ESE 18:35:19 10° S
Cosmos 44 4.4 18:29:05 10° SSE 18:32:16 20° ESE 18:35:33 10° ENE
SWIFT 4.4 18:30:26 10° SW 18:33:14 17° S 18:36:02 10° SE
Geosat 4.0 18:32:21 10° NNE 18:37:23 87° ESE 18:42:25 10° SSW
Cosmos 1833 4.3 18:34:52 10° NNW 18:40:34 61° ENE 18:46:12 10° SSE
SL-27 R/B 2.9 18:39:12 10° NNW 18:42:42 66° WSW 18:46:08 10° S
Cosmos 2058 Rocket 4.2 18:39:40 10° SE 18:43:02 22° E 18:46:25 10° NE
Cosmos 1331 Rocket 4.1 18:41:00 10° S 18:46:00 51° ESE 18:50:59 10° NNE
Cosmos 2228 3.0 18:42:46 10° S 18:46:54 57° E 18:51:03 10° NNE
Cosmos 1939 Rocket 2.8 18:44:36 10° SSE 18:48:37 63° ENE 18:52:34 10° N
Cosmos 1809 Rocket 4.4 18:42:40 10° N 18:48:46 62° E 18:54:46 10° SSE
Feng Yun 1-1 Rocket 4.4 18:45:01 10° SSE 18:50:48 86° ENE 18:56:43 10° NNW
Cosmos 1602 Rocket 3.9 18:47:21 10° N 18:51:49 70° W 18:56:14 10° S
Cosmos 292 Rocket 4.2 18:47:39 10° S 18:52:04 39° ESE 18:56:31 10° NNE
Aureole 1 Rocket 2.1 18:50:12 10° NNW 18:53:10 84° WSW 18:56:21 10° SSE
Hubble Space Telescope 1.1 18:53:14 10° W 18:57:18 59° S 18:59:52 21° ESE
Longmarch 3A Rocket 3.0 18:55:52 10° SW 18:57:34 21° S 19:00:28 11° SE
CZ-4 R/B 1.7 18:54:24 10° SE 18:58:08 40° ENE 19:01:49 10° N
CZ-2D R/B 3.2 18:54:31 10° SSE 18:58:16 57° ENE 19:02:01 10° N
Cosmos 1953 Rocket 4.3 18:55:04 10° NNE 18:58:54 29° E 19:02:45 10° SE
FALCON 9 DEB 4.0 18:57:31 10° S 19:00:18 27° SE 19:00:42 26° ESE
Okean O Rocket 4.2 18:56:53 10° SSW 19:00:28 24° W 19:04:03 10° NW
Aureole 3 Rocket 3.2 18:58:16 10° SSE 19:00:59 28° E 19:02:00 24° ENE
Cosmos 1703 3.5 18:57:53 10° N 19:01:48 72° W 19:05:43 10° S
MOS 1 Rocket 3.6 18:59:34 10° NNE 19:03:58 43° E 19:08:35 10° S
IRS-1C Rocket 4.1 18:59:21 10° SSE 19:04:35 86° WSW 19:09:52 10° NNW
GENESIS II 4.2 19:00:48 10° SSW 19:04:45 62° ESE 19:07:40 17° NE
USA 229 DEB 3.9 18:58:45 10° NNW 19:06:17 81° ENE 19:14:03 10° SSE
USA 229 3.9 18:58:52 10° NNW 19:06:22 80° ENE 19:14:09 10° SSE
Cosmos 1110 Rocket 4.1 19:02:23 10° SSW 19:07:39 83° WNW 19:12:55 10° NNE
Meteor 1-11 4.2 19:04:16 10° N 19:09:57 71° E 19:15:41 10° SSE
BREEZE-M DEB (TANK) 2.4 19:07:36 10° SSW 19:11:00 42° SE 19:11:05 42° SE
Cosmos 1302 Rocket 4.3 19:06:19 10° S 19:11:13 43° ESE 19:16:03 11° NNE
Cosmos 1553 Rocket 4.2 19:08:26 10° SSE 19:14:30 46° E 19:20:31 10° NNE
Cosmos 1741 Rocket 3.9 19:11:59 10° N 19:17:13 70° ENE 19:22:23 10° SSE
USA 276 4.2 19:16:09 10° NNW 19:17:35 17° N 19:17:35 17° N
SL-8 R/B 4.4 19:14:19 10° WNW 19:18:58 52° SW 19:23:01 13° SSE
X-37B 3.8 19:18:35 10° WSW 19:19:32 11° SW 19:20:28 10° SSW
NOSS 3-1 (A) 4.2 19:11:28 10° NNW 19:19:33 79° ENE 19:28:32 10° SSE
H-2A R/B 2.4 19:15:51 13° SE 19:20:11 42° ENE 19:25:14 10° N
Okean-O 2.6 19:16:41 10° SSE 19:21:06 89° W 19:25:33 10° NNW
ARGOS 3.8 19:23:47 33° ENE 19:23:47 33° ENE 19:28:29 10° N
DMSP B5D1-3 4.5 19:20:29 10° NNE 19:25:38 89° WNW 19:30:47 10° SSW
SeaSat 1 2.9 19:25:37 37° ENE 19:25:55 37° ENE 19:30:26 10° N
COSMOS 2487 2.2 19:25:16 10° NNW 19:28:30 73° NNE 19:28:30 73° NNE
OAO 3 Rocket 3.5 19:24:36 10° W 19:29:15 55° N 19:30:32 41° NE
CSL-04 Rocket 3.8 19:24:26 10° SSE 19:29:49 54° ENE 19:35:13 10° N
Cosmos 1300 3.6 19:26:28 10° SSW 19:30:09 49° W 19:33:51 10° N
YAOGAN 1 2.5 19:27:37 10° SSE 19:31:56 87° W 19:36:16 10° NNW
Aureole 3 3.2 19:28:50 10° S 19:33:03 77° W 19:35:27 19° N
Cosmos 1850 Rocket 4.3 19:31:37 10° NNW 19:36:54 70° WSW 19:42:11 10° S
CZ-2C R/B 4.2 19:40:26 19° SSE 19:40:26 19° SSE 19:42:06 10° SSE
Cosmos 1400 Rocket 2.8 19:33:44 10° S 19:37:51 84° W 19:41:21 14° N
Cosmos 1656 3.6 19:33:40 10° S 19:38:59 55° ESE 19:39:48 50° ENE
Cosmos 1825 Rocket 4.4 19:35:58 10° NNW 19:40:17 50° W 19:44:32 10° SSW
CZ-2C R/B 3.4 19:37:43 10° S 19:43:31 79° W 19:49:21 10° NNW
Atlas Centaur 2 3.6 19:36:03 10° SW 19:43:41 38° SSE 19:45:26 34° SE
SJ-11-01 4.1 19:45:28 53° SSE 19:46:32 82° ENE 19:51:13 10° N
Meteor 2-10 Rocket 4.0 19:42:30 10° S 19:46:35 45° SE 19:46:35 45° SE
SL-08 R/B 4.3 19:49:24 10° N 19:55:34 71° E 19:57:23 47° SSE
Cosmos 2297 Rocket 4.1 19:52:42 10° N 19:53:58 15° NNE 19:53:58 15° NNE
CSL-04 Debris 4.4 19:56:02 10° S 20:01:24 69° WSW 20:06:49 10° NNW
Milstar 3 2.8 20:02:18 10° WSW 20:08:53 70° S 20:09:51 63° SE
GEOS 3 Rocket 4.4 20:12:13 38° SSW 20:13:43 49° WSW 20:18:53 10° NW
Timation 2 Rocket 4.3 20:13:53 10° NNW 20:19:16 59° N 20:19:16 59° N
Gbstr 26 Del rocket 4.2 20:16:37 10° NW 20:23:56 89° NE 20:24:13 85° SE
S3M 4.3 20:20:04 10° SSW 20:26:04 60° W 20:32:06 10° N
Hubble Space Telescope 3.7 20:34:27 10° W 20:35:11 14° WSW 20:35:11 14° WSW
H-2A R/B 4.5 20:56:29 11° SW 20:59:41 19° W 21:03:23 10° NW
